TimePDT,TemperatureF,Dew PointF,Humidity,Sea Level PressureIn,VisibilityMPH,Wind Direction,Wind SpeedMPH,Gust SpeedMPH,PrecipitationIn,Events,Conditions,WindDirDegrees,DateUTC
12:28 AM,59.0,59.0,100,29.86,10.0,Calm,Calm,-,N/A,,Scattered Clouds,0,2013-08-24 07:28:00
12:53 AM,59.0,59.0,100,29.86,10.0,WNW,9.2,-,N/A,,Mostly Cloudy,300,2013-08-24 07:53:00
1:22 AM,60.8,59.0,94,29.86,10.0,West,13.8,-,N/A,,Scattered Clouds,280,2013-08-24 08:22:00
1:53 AM,61.0,60.1,97,29.87,10.0,West,12.7,-,N/A,,Mostly Cloudy,260,2013-08-24 08:53:00
2:53 AM,60.1,60.1,100,29.87,10.0,SW,5.8,-,N/A,,Mostly Cloudy,220,2013-08-24 09:53:00
3:53 AM,60.1,60.1,100,29.87,10.0,WSW,10.4,-,N/A,,Mostly Cloudy,250,2013-08-24 10:53:00
4:53 AM,60.1,60.1,100,29.87,10.0,WNW,5.8,-,N/A,,Overcast,290,2013-08-24 11:53:00
5:53 AM,59.0,59.0,100,29.87,10.0,West,8.1,-,N/A,,Overcast,280,2013-08-24 12:53:00
6:53 AM,60.1,60.1,100,29.88,10.0,Calm,Calm,-,N/A,,Mostly Cloudy,0,2013-08-24 13:53:00
7:53 AM,61.0,61.0,100,29.90,10.0,West,5.8,-,N/A,,Mostly Cloudy,270,2013-08-24 14:53:00
8:53 AM,61.0,60.1,97,29.90,10.0,WNW,4.6,-,N/A,,Mostly Cloudy,290,2013-08-24 15:53:00
9:53 AM,64.0,61.0,90,29.91,10.0,SW,8.1,-,N/A,,Scattered Clouds,220,2013-08-24 16:53:00
10:53 AM,66.0,60.1,81,29.91,10.0,West,8.1,-,N/A,,Scattered Clouds,270,2013-08-24 17:53:00
11:53 AM,68.0,59.0,73,29.92,10.0,West,9.2,-,N/A,,Scattered Clouds,260,2013-08-24 18:53:00
12:53 PM,68.0,60.1,76,29.91,10.0,West,10.4,-,N/A,,Scattered Clouds,260,2013-08-24 19:53:00
1:53 PM,68.0,59.0,73,29.91,10.0,WSW,6.9,-,N/A,,Mostly Cloudy,240,2013-08-24 20:53:00
2:53 PM,71.1,59.0,66,29.90,10.0,West,12.7,-,N/A,,Mostly Cloudy,270,2013-08-24 21:53:00
3:53 PM,69.1,61.0,75,29.89,10.0,West,12.7,-,N/A,,Mostly Cloudy,270,2013-08-24 22:53:00
4:53 PM,70.0,62.1,76,29.89,10.0,West,19.6,-,N/A,,Mostly Cloudy,270,2013-08-24 23:53:00
5:53 PM,68.0,63.0,84,29.88,10.0,West,12.7,-,N/A,,Mostly Cloudy,270,2013-08-25 00:53:00
6:53 PM,66.9,63.0,87,29.88,10.0,West,15.0,-,N/A,,Mostly Cloudy,270,2013-08-25 01:53:00
7:53 PM,64.0,62.1,93,29.88,10.0,West,16.1,-,N/A,,Mostly Cloudy,280,2013-08-25 02:53:00
8:53 PM,63.0,63.0,100,29.89,10.0,West,16.1,-,N/A,,Scattered Clouds,260,2013-08-25 03:53:00
9:45 PM,62.6,62.6,100,29.90,10.0,West,13.8,-,N/A,,Mostly Cloudy,260,2013-08-25 04:45:00
9:53 PM,63.0,63.0,100,29.91,10.0,West,12.7,-,N/A,,Mostly Cloudy,260,2013-08-25 04:53:00
10:25 PM,62.6,62.6,100,29.91,10.0,WSW,6.9,-,N/A,,Mostly Cloudy,250,2013-08-25 05:25:00
10:46 PM,62.6,62.6,100,29.91,10.0,WSW,9.2,-,N/A,,Mostly Cloudy,240,2013-08-25 05:46:00
10:53 PM,63.0,63.0,100,29.91,10.0,WSW,9.2,-,N/A,,Mostly Cloudy,250,2013-08-25 05:53:00
11:53 PM,64.0,64.0,100,29.91,10.0,WSW,4.6,-,N/A,,Overcast,240,2013-08-25 06:53:00